Torna al catalogo

STARLINK-36401

AttivoComunicazioniSSO
NORAD 67696·PAYLOAD·🇺🇸 United States

Lanciato Feb 7, 2026 da Vandenberg Space Force Base

Loading…

Prossimi Passaggi (prossime 24 ore)

TLE

AggiornatoSource: CelesTrak SupGP

Epoca: Sep 14, 2026, 22:49 UTC

1 67696C 26025D   26257.95118056 -.00038797  00000+0 -12041-2 0  2578
2 67696  97.2857   7.9636 0000955  85.7341  56.4327 15.33466715    11

Traccia STARLINK-36401 in tempo reale con AllMySat

Download on the App Store